Stations météo

réclame
Mon MeteoGroup
Berus, Allemagne (10704): Température de l'air & dewpoint: 14.01.2018 00:00:00 - 20.01.2018 00:00:00 (CET)Berus, Allemagne (10704): Température de l'air 5cm & Température de l'air -5cm: 14.01.2018 00:00:00 - 20.01.2018 00:00:00 (CET)Berus, Allemagne (10704): Température de l'air -20cm & Température de l'air -100cm: 14.01.2018 00:00:00 - 20.01.2018 00:00:00 (CET)Berus, Allemagne (10704): Vitesse du vent & gusts: 14.01.2018 00:00:00 - 20.01.2018 00:00:00 (CET)Berus, Allemagne (10704): Direction du vent: 14.01.2018 00:00:00 - 20.01.2018 00:00:00 (CET)Berus, Allemagne (10704): reduced air pressure: 14.01.2018 00:00:00 - 20.01.2018 00:00:00 (CET)Berus, Allemagne (10704): visibility: 14.01.2018 00:00:00 - 20.01.2018 00:00:00 (CET)Berus, Allemagne (10704): Ensoleillement: 14.01.2018 00:00:00 - 20.01.2018 00:00:00 (CET)Berus, Allemagne (10704): Quantités de précipitations: 14.01.2018 00:00:00 - 20.01.2018 00:00:00 (CET)
Date & Time tt [°C] td [°C] tt 5cm [°C] tt -5cm [°C] tt -20cm [°C] tt -100cm [°C] ff [km/h] ff [knt] fx [km/h] fx [knt] dd ppp [hPa] vv [km] sd [min] rr [mm]
20.01.2018 00:00:00 1,3 0,9 1,0 1,7 3,3 6,1 26 14 40 22 SW 1014,4 9 0 0,0
19.01.2018 23:00:00 1,0 0,6 0,2 1,9 3,4 6,1 23 12 40 21 WSW 1014,3 12 0 0,0
19.01.2018 22:00:00 1,4 1,0 1,1 2,0 3,5 6,1 23 13 33 18 WSW 1014,2 9 0 0,0
19.01.2018 21:00:00 1,1 1,0 0,7 2,1 3,6 6,1 14 8 24 13 SW 1013,9 7 0 0,0
19.01.2018 20:00:00 1,1 1,0 0,7 2,2 3,7 6,1 15 8 23 13 SW 1013,5 8 0 0,0
19.01.2018 19:00:00 0,7 0,6 0,4 2,4 3,7 6,1 11 6 27 14 WSW 1013,1 8 0 1,3
19.01.2018 18:00:00 1,9 1,8 1,8 3,4 3,7 6,1 14 7 22 12 SW 1012,5 6 0 0,1
19.01.2018 17:00:00 2,1 1,9 2,1 3,8 3,7 6,1 13 7 23 13 SW 1012,4 15 0 0,2
19.01.2018 16:00:00 2,6 2,1 2,6 4,1 3,6 6,1 11 6 21 12 SW 1012,3 24 0 0,1
19.01.2018 15:00:00 2,2 1,3 2,2 4,2 3,5 6,1 16 9 35 19 SW 1012,4 37 0 0,1
19.01.2018 14:00:00 3,4 1,4 3,1 4,2 3,3 6,1 21 11 36 19 WSW 1012,3 55 0 0,2
19.01.2018 13:00:00 3,6 0,7 3,8 4,3 3,2 6,1 18 10 30 16 WSW 1012,9 60 4 0,0
19.01.2018 12:00:00 3,8 1,0 4,7 3,4 3,2 6,1 18 10 36 19 WSW 1013,5 61 4 0,0
19.01.2018 11:00:00 2,9 0,8 3,2 2,6 3,2 6,1 21 11 36 19 WSW 1013,4 57 0 0,0
19.01.2018 10:00:00 2,6 0,7 2,7 2,0 3,2 6,1 21 11 32 17 WSW 1012,9 54 1 0,0
19.01.2018 09:00:00 2,3 0,2 1,9 1,8 3,3 6,1 22 12 42 23 WSW 1012,4 59 0 0,0
19.01.2018 08:00:00 2,3 0,1 1,9 1,9 3,4 6,1 28 15 49 26 WSW 1011,6 59 0 0,0
19.01.2018 07:00:00 2,4 0,2 2,0 1,9 3,4 6,1 26 14 49 26 WSW 1010,7 70 0 0,0
19.01.2018 06:00:00 2,5 0,5 1,7 2,0 3,5 6,1 29 16 54 29 WSW 1009,8 70 0 0,0
19.01.2018 05:00:00 2,4 0,6 2,0 2,3 3,5 6,1 26 14 50 27 WSW 1009,2 70 0 0,0
19.01.2018 04:00:00 2,9 0,9 2,3 2,5 3,6 6,1 28 15 53 28 WSW 1008,4 70 0 0,0
19.01.2018 03:00:00 3,9 1,1 2,9 2,8 3,6 6,1 26 14 42 23 WSW 1007,6 70 0 0,0
19.01.2018 02:00:00 4,2 2,3 3,0 2,9 3,6 6,1 23 13 42 23 WSW 1006,8 70 0 0,0
19.01.2018 01:00:00 3,9 2,7 3,1 3,0 3,6 6,1 17 9 42 23 W 1006,3 59 0 0,2
19.01.2018 00:00:00 5,1 2,5 4,6 2,6 3,7 6,1 29 15 49 27 WSW 1005,6 41 0 0,0
18.01.2018 23:00:00 4,3 2,8 3,6 2,4 3,8 6,2 32 18 45 24 SW 1004,9 28 0 0,0
18.01.2018 22:00:00 4,3 2,5 3,2 2,4 3,9 6,2 24 13 37 20 WSW 1005,3 29 0 0,0
18.01.2018 21:00:00 4,3 2,3 2,8 2,7 4,0 6,2 20 11 31 17 WSW 1005,7 27 0 0,0
18.01.2018 20:00:00 4,4 1,4 2,9 3,0 4,1 6,2 19 10 28 15 WSW 1005,7 44 0 0,0
18.01.2018 19:00:00 5,2 1,2 3,4 3,6 4,2 6,2 20 11 39 21 WSW 1005,5 59 0 0,0
18.01.2018 18:00:00 5,9 1,1 4,9 4,1 4,2 6,2 19 10 38 20 WSW 1004,8 66 0 0,0
18.01.2018 17:00:00 6,7 1,7 5,3 4,8 4,1 6,2 24 13 48 26 WSW 1004,2 41 48 0,0
18.01.2018 16:00:00 7,7 2,1 6,3 5,7 3,9 6,2 30 16 53 29 W 1003,6 27 29 0,0
18.01.2018 15:00:00 7,7 2,0 6,7 6,0 3,7 6,2 36 19 67 36 W 1003,0 54 7 0,0
18.01.2018 14:00:00 8,4 6,9 8,9 5,7 3,4 6,2 35 19 67 36 WSW 1002,6 57 8 4,0
18.01.2018 13:00:00 7,2 7,1 7,0 5,4 3,2 6,2 35 19 94 51 WSW 1003,1 3,1 2 2,6
18.01.2018 12:00:00 8,3 6,0 7,6 4,7 3,0 6,2 53 28 83 45 WSW 1002,1 34 9 0,5
18.01.2018 11:00:00 6,8 6,5 6,4 3,7 2,9 6,2 51 28 84 45 SW 1002,3 45 0 1,4
18.01.2018 10:00:00 5,8 5,7 5,5 2,8 2,9 6,2 51 28 78 42 SW 1002,7 68 0 1,0
18.01.2018 09:00:00 3,6 3,5 3,4 1,9 2,9 6,2 48 26 69 37 SW 1002,9 3,1 0 0,4
18.01.2018 08:00:00 1,5 1,4 1,4 1,6 3,0 6,2 44 24 71 38 SW 1003,8 4,1 0 0,8
18.01.2018 07:00:00 0,7 0,5 0,3 1,8 3,0 6,3 45 25 66 35 SW 1004,8 5 0 1,4
18.01.2018 06:00:00 1,6 1,4 1,3 2,2 3,0 6,3 42 23 60 33 SW 1005,9 5 0 1,4
18.01.2018 05:00:00 2,2 1,8 1,9 2,2 3,0 6,3 40 22 59 32 SW 1007,7 9 0 0,6
18.01.2018 04:00:00 2,6 2,0 2,2 2,2 3,0 6,3 36 19 54 29 SW 1009,6 11 0 0,3
18.01.2018 03:00:00 2,9 1,7 2,3 2,1 3,0 6,3 30 16 49 26 SW 1010,8 22 0 0,0
18.01.2018 02:00:00 2,7 1,6 2,2 1,9 3,0 6,3 35 19 49 27 WSW 1012,3 30 0 0,1
18.01.2018 01:00:00 2,2 1,6 1,8 1,6 3,1 6,3 31 17 52 28 WSW 1013,2 15 0 0,1
18.01.2018 00:00:00 1,5 1,1 1,1 1,3 3,1 6,3 26 14 36 20 WSW 1013,6 29 0 0,6
17.01.2018 23:00:00 1,3 0,7 0,7 1,7 3,2 6,3 14 8 34 18 W 1014,0 4,6 0 0,1
17.01.2018 22:00:00 1,2 0,4 0,9 1,6 3,3 6,3 17 9 48 26 W 1014,1 16 0 0,0
17.01.2018 21:00:00 1,8 -0,2 1,4 1,5 3,4 6,3 30 16 45 25 WSW 1013,7 60 0 0,0
17.01.2018 20:00:00 2,0 -0,3 0,9 1,8 3,5 6,3 29 15 46 25 WSW 1013,1 43 0 0,0
17.01.2018 19:00:00 2,7 -0,8 1,4 2,2 3,5 6,3 24 13 46 25 WSW 1012,7 38 0 0,0
17.01.2018 18:00:00 3,5 -1,5 2,6 2,7 3,5 6,3 29 16 58 32 W 1011,9 48 0 0,0
17.01.2018 17:00:00 3,7 -1,0 3,2 3,0 3,5 6,3 29 16 52 28 WSW 1010,9 52 0 0,0
17.01.2018 16:00:00 3,6 -1,1 3,1 3,4 3,4 6,3 33 18 65 35 WSW 1010,0 23 9 0,0
17.01.2018 15:00:00 3,7 -1,2 4,0 3,4 3,3 6,3 40 22 65 35 WSW 1009,0 49 1 0,0
17.01.2018 14:00:00 2,8 -0,9 2,7 3,5 3,2 6,3 31 17 62 33 WSW 1008,8 42 0 0,0
17.01.2018 13:00:00 3,0 -1,2 3,5 3,7 3,2 6,3 32 18 63 34 W 1008,4 49 41 0,0
17.01.2018 12:00:00 1,8 -0,9 2,1 2,6 3,2 6,3 30 16 51 28 W 1008,3 48 17 0,0
17.01.2018 11:00:00 1,1 -1,1 1,7 1,5 3,3 6,3 31 17 58 31 WSW 1007,2 40 20 0,2
17.01.2018 10:00:00 -0,2 -0,5 -0,1 1,3 3,4 6,3 24 13 44 24 WSW 1006,0 3,2 0 0,1
17.01.2018 09:00:00 -0,3 -0,6 -0,4 1,5 3,5 6,3 32 17 61 33 WSW 1004,1 8 0 0,3
17.01.2018 08:00:00 1,3 -1,1 0,9 1,8 3,6 6,3 36 19 63 34 WSW 1002,6 63 0 0,0
17.01.2018 07:00:00 1,6 -1,5 1,1 2,0 3,6 6,3 38 21 67 36 WSW 1001,5 70 0 0,0
17.01.2018 06:00:00 1,6 -1,1 0,9 2,2 3,7 6,3 37 20 59 32 WSW 1000,2 70 0 0,0
17.01.2018 05:00:00 1,5 -0,2 1,1 2,5 3,7 6,3 34 18 61 33 WSW 999,9 70 0 0,0
17.01.2018 04:00:00 1,7 0,4 1,3 2,8 3,8 6,3 34 18 65 35 WSW 999,2 70 0 0,1
17.01.2018 03:00:00 3,3 1,7 2,5 2,9 3,8 6,3 37 20 57 31 WSW 997,6 11 0 0,0
17.01.2018 02:00:00 3,4 1,5 2,6 2,9 3,8 6,3 37 20 60 33 WSW 997,4 70 0 0,0
17.01.2018 01:00:00 3,0 1,8 2,3 3,0 3,9 6,4 34 18 58 31 WSW 998,2 70 0 0,0
17.01.2018 00:00:00 2,9 2,2 2,5 2,9 3,9 6,4 37 20 53 28 WSW 998,1 33 0 0,5
16.01.2018 23:00:00 2,9 2,1 2,5 3,0 4,0 6,4 29 15 49 26 WSW 999,2 15 0 0,1
16.01.2018 22:00:00 3,1 2,7 2,8 2,8 4,1 6,4 29 16 43 23 WSW 1000,0 26 0 0,0
16.01.2018 21:00:00 2,1 1,9 1,8 2,8 4,2 6,4 21 11 44 24 WSW 1000,2 24 0 0,0
16.01.2018 20:00:00 1,9 1,3 1,4 3,1 4,3 6,4 26 14 51 27 WSW 1000,7 70 0 0,1
16.01.2018 19:00:00 1,9 1,3 1,6 3,4 4,3 6,4 18 10 55 30 WSW 1000,9 14 0 0,9
16.01.2018 18:00:00 1,9 1,3 1,6 4,0 4,4 6,4 31 17 51 28 W 1001,4 3,3 0 1,3
16.01.2018 17:00:00 5,0 1,9 4,4 4,3 4,3 6,4 25 13 45 25 WSW 1000,1 70 0 0,0
16.01.2018 16:00:00 4,2 1,9 3,8 4,7 4,3 6,4 31 17 64 35 WSW 1000,1 70 2 0,0
16.01.2018 15:00:00 5,1 1,6 4,5 5,1 4,2 6,4 36 20 74 40 WSW 1000,1 70 0 0,0
16.01.2018 14:00:00 5,4 1,1 5,0 5,2 4,2 6,4 37 20 59 32 WSW 999,6 70 1 0,0
16.01.2018 13:00:00 5,3 3,2 5,0 5,0 4,1 6,4 37 20 59 32 WSW 999,2 70 0 0,0
16.01.2018 12:00:00 4,9 3,2 4,6 4,9 4,0 6,5 32 17 67 36 WSW 999,6 70 0 0,2
16.01.2018 11:00:00 5,2 3,7 4,7 4,7 3,9 6,5 44 24 71 38 WSW 999,0 67 0 1,1
16.01.2018 10:00:00 6,1 3,9 5,5 4,5 3,9 6,5 44 24 68 37 WSW 997,9 70 0 0,0
16.01.2018 09:00:00 5,9 4,3 5,3 4,3 3,8 6,5 44 24 73 40 WSW 998,1 70 0 0,1
16.01.2018 08:00:00 5,7 4,8 5,0 4,3 3,8 6,5 32 17 67 36 WSW 997,5 5 0 0,5
16.01.2018 07:00:00 5,6 5,2 5,2 4,2 3,7 6,5 40 22 69 38 WSW 997,5 70 0 2,1
16.01.2018 06:00:00 5,5 5,2 5,1 4,1 3,6 6,5 36 19 61 33 WSW 997,7 7 0 1,5
16.01.2018 05:00:00 5,5 4,8 4,9 4,0 3,6 6,5 37 20 59 32 WSW 998,7 6 0 0,7
16.01.2018 04:00:00 5,4 4,9 5,0 3,8 3,5 6,5 34 19 67 36 SW 999,5 18 0 0,9
16.01.2018 03:00:00 5,6 3,9 4,6 3,7 3,5 6,6 42 23 64 35 WSW 1000,0 5 0 0,0
16.01.2018 02:00:00 4,9 3,6 3,8 3,9 3,4 6,6 31 17 66 36 WSW 1000,5 70 0 0,4
16.01.2018 01:00:00 5,8 4,7 5,1 4,0 3,3 6,6 39 21 64 34 WSW 1000,7 11 0 0,4
16.01.2018 00:00:00 5,4 5,2 5,1 3,8 3,2 6,6 34 19 61 33 SW 1000,4 61 0 0,7
15.01.2018 23:00:00 5,0 4,9 4,7 3,5 3,2 6,6 40 21 80 43 SW 1000,5 5 0 1,5
15.01.2018 22:00:00 4,6 4,2 4,2 3,3 3,1 6,6 42 23 71 39 SW 1000,8 31 0 0,7
15.01.2018 21:00:00 4,0 3,5 3,6 3,2 3,1 6,6 43 23 78 42 SW 1001,6 6 0 0,9
15.01.2018 20:00:00 3,7 3,2 3,4 3,1 3,0 6,6 44 24 65 35 SW 1002,5 7 0 1,9
15.01.2018 19:00:00 3,8 3,4 3,4 3,1 2,9 6,6 44 24 67 36 SSW 1003,4 3,4 0 2,2
15.01.2018 18:00:00 4,1 3,5 3,7 3,0 2,8 6,6 37 20 58 32 SSW 1004,9 3,3 0 0,7
15.01.2018 17:00:00 4,9 2,2 4,4 3,0 2,7 6,6 32 18 55 30 SSW 1006,3 20 0 0,0
15.01.2018 16:00:00 5,1 2,3 4,6 2,9 2,5 6,6 37 20 51 28 SSW 1008,0 19 0 0,0
15.01.2018 15:00:00 5,1 1,9 4,7 2,8 2,4 6,6 32 17 48 26 SSW 1008,5 26 0 0,0
15.01.2018 14:00:00 5,0 1,6 4,9 2,0 2,3 6,7 32 17 49 26 SSW 1011,7 28 0 0,0
15.01.2018 13:00:00 4,7 1,6 4,5 0,6 2,4 6,7 26 14 45 24 SSW 1013,6 17 7 0,0
15.01.2018 12:00:00 3,8 1,5 4,1 0,6 2,4 6,7 20 11 31 17 SSW 1014,9 10 8 0,0
15.01.2018 11:00:00 2,3 0,8 1,9 0,6 2,4 6,7 18 10 24 13 SSW 1016,3 8 0 0,0
15.01.2018 10:00:00 1,2 -0,1 0,9 0,6 2,5 6,7 17 9 24 13 SSW 1017,2 7 0 0,0
15.01.2018 09:00:00 0,5 -0,6 0,0 0,6 2,5 6,7 14 7 21 11 SSW 1018,0 6 0 0,0
15.01.2018 08:00:00 0,0 -1,1 -0,4 0,6 2,5 6,7 13 7 17 9 S 1018,4 6 0 0,0
15.01.2018 07:00:00 -0,6 -1,5 -0,8 0,6 2,6 6,7 11 6 16 9 S 1018,9 4,4 0 0,0
15.01.2018 06:00:00 -1,0 -1,7 -1,5 0,6 2,6 6,7 11 6 15 8 S 1019,3 3,4 0 0,0
15.01.2018 05:00:00 -1,0 -1,8 -1,5 0,6 2,7 6,7 6 4 10 5 SE 1019,9 4,1 0 0,0
15.01.2018 04:00:00 -1,1 -2,1 -1,8 0,7 2,7 6,7 6 3 10 5 ESE 1020,5 4,6 0 0,0
15.01.2018 03:00:00 -0,9 -1,9 -1,4 0,7 2,8 6,7 6 3 11 6 ESE 1021,1 6 0 0,0
15.01.2018 02:00:00 -1,4 -2,3 -2,7 0,7 2,8 6,7 7 4 10 5 E 1021,4 7 0 0,0
15.01.2018 01:00:00 -1,0 -2,2 -2,8 0,8 2,9 6,7 9 5 11 6 ENE 1022,0 8 0 0,0
15.01.2018 00:00:00 -1,1 -2,2 -3,1 0,9 3,0 6,8 9 5 13 7 ENE 1022,4 8 0 0,0
14.01.2018 23:00:00 -1,1 -2,3 -2,7 1,0 3,0 6,8 9 5 15 8 ENE 1022,4 8 0 0,0
14.01.2018 22:00:00 -0,9 -2,0 -2,2 1,0 3,1 6,8 11 6 16 9 NE 1022,4 8 0 0,0
14.01.2018 21:00:00 -0,6 -2,0 -2,1 1,1 3,2 6,8 12 7 19 11 ENE 1022,4 7 0 0,0
14.01.2018 20:00:00 0,1 -1,7 -1,2 1,2 3,2 6,8 13 7 23 12 ENE 1022,2 12 0 0,0
14.01.2018 19:00:00 0,5 -1,5 -0,9 1,3 3,3 6,8 14 8 23 12 ENE 1022,0 12 0 0,0
14.01.2018 18:00:00 1,2 -1,3 -0,5 1,8 3,3 6,8 14 8 22 12 ENE 1021,7 13 0 0,0
14.01.2018 17:00:00 2,0 -1,0 0,6 2,7 3,2 6,8 13 7 23 12 ENE 1021,3 14 35 0,0
14.01.2018 16:00:00 3,2 -0,9 2,5 3,5 3,0 6,8 10 5 27 15 ENE 1020,9 16 60 0,0
14.01.2018 15:00:00 3,6 -0,6 5,1 3,6 2,9 6,8 13 7 32 17 NE 1020,7 14 60 0,0
14.01.2018 14:00:00 3,1 -1,0 5,4 2,7 2,9 6,8 21 11 35 19 NE 1020,6 15 60 0,0
14.01.2018 13:00:00 3,2 -1,3 4,8 0,9 2,9 6,8 17 9 29 15 E 1021,0 15 60 0,0
14.01.2018 12:00:00 2,8 -1,4 3,7 0,7 3,0 6,8 14 8 26 14 E 1021,5 12 60 0,0
14.01.2018 11:00:00 1,5 -1,5 2,2 0,7 3,0 6,8 14 7 26 14 E 1021,9 11 60 0,0
14.01.2018 10:00:00 0,4 -1,6 0,3 0,7 3,1 6,8 17 9 28 15 ENE 1021,9 9 40 0,0
14.01.2018 09:00:00 -0,2 -1,5 -1,3 0,8 3,1 6,8 18 10 27 15 ENE 1021,5 8 0 0,0
14.01.2018 08:00:00 0,0 -1,3 -1,2 0,8 3,2 6,8 18 10 27 14 ENE 1021,2 9 0 0,0
14.01.2018 07:00:00 0,0 -1,2 -1,2 0,9 3,3 6,8 19 10 29 16 ENE 1021,0 8 0 0,0
14.01.2018 06:00:00 0,1 -1,1 -1,0 0,9 3,4 6,8 17 9 25 14 ENE 1020,8 7 0 0,0
14.01.2018 05:00:00 0,4 -0,8 -0,9 1,0 3,4 6,8 17 9 26 14 ENE 1020,9 7 0 0,0
14.01.2018 04:00:00 0,7 -0,6 -0,5 1,0 3,5 6,8 16 9 27 15 ENE 1020,9 8 0 0,0
14.01.2018 03:00:00 0,9 -0,6 -0,5 1,1 3,6 6,8 15 8 31 17 ENE 1021,0 8 0 0,0
14.01.2018 02:00:00 1,3 -0,5 -0,2 1,1 3,7 6,8 16 9 26 14 ENE 1020,8 10 0 0,0
14.01.2018 01:00:00 1,5 -0,4 0,0 1,2 3,8 6,8 15 8 27 15 ENE 1021,0 9 0 0,0
14.01.2018 00:00:00 1,5 -0,5 0,1 1,2 4,0 6,8 17 9 26 14 ENE 1021,2 9 0 0,0

tt = Température de l'air
td = dewpoint
tt 5cm = Température de l'air 5cm
tt -5cm = Température de l'air -5cm
tt -20cm = Température de l'air -20cm
tt -100cm = Température de l'air -100cm
ff = Vitesse du vent
fx = gusts
dd = Direction du vent
ppp = reduced air pressure
vv = visibility
sd = Ensoleillement
rr = Quantités de précipitations

stations d'obs. à proximité